www.pogodaiklimat.ru
ПОГОДА в Mittarfik Upernavik
Время
(UTC), дата
22 9.11
23 9.11
00 10.11
01 10.11
02 10.11
03 10.11
04 10.11
05 10.11
06 10.11
07 10.11
08 10.11
09 10.11
10 10.11
11 10.11
12 10.11
13 10.11
14 10.11
15 10.11
16 10.11
17 10.11
18 10.11
19 10.11
20 10.11
21 10.11
22 10.11
23 10.11
00 11.11
01 11.11
02 11.11
03 11.11
04 11.11
05 11.11
06 11.11
07 11.11
08 11.11
09 11.11
10 11.11
11 11.11
12 11.11
13 11.11
14 11.11
15 11.11
16 11.11
17 11.11
18 11.11
19 11.11
20 11.11
21 11.11
22 11.11
23 11.11
00 12.11
01 12.11
02 12.11
03 12.11
04 12.11
05 12.11
06 12.11
07 12.11
08 12.11
09 12.11
10 12.11
11 12.11
12 12.11
13 12.11
14 12.11
15 12.11
16 12.11
17 12.11
18 12.11
19 12.11
20 12.11
21 12.11
22 12.11
23 12.11
00 13.11
01 13.11
02 13.11
03 13.11
04 13.11
05 13.11
06 13.11
07 13.11
08 13.11
09 13.11
10 13.11
11 13.11
12 13.11
13 13.11
14 13.11
15 13.11
16 13.11
17 13.11
18 13.11
19 13.11
21 13.11
00 14.11
01 14.11
02 14.11
03 14.11
04 14.11
05 14.11
06 14.11
07 14.11
08 14.11
09 14.11
10 14.11
11 14.11
12 14.11
13 14.11
14 14.11
15 14.11
16 14.11
17 14.11
18 14.11
19 14.11
20 14.11
21 14.11
22 14.11
23 14.11
00 15.11
01 15.11
02 15.11
03 15.11
04 15.11
05 15.11
06 15.11
07 15.11
08 15.11
09 15.11
10 15.11
11 15.11
12 15.11
13 15.11
14 15.11
15 15.11
16 15.11
17 15.11
18 15.11
19 15.11
20 15.11
21 15.11
22 15.11
23 15.11
00 16.11
01 16.11
02 16.11
03 16.11
04 16.11
05 16.11
06 16.11
07 16.11
08 16.11
09 16.11
10 16.11
11 16.11
12 16.11
13 16.11
14 16.11
15 16.11
16 16.11
17 16.11
18 16.11
19 16.11
20 16.11
Ветер
(напр.,м/с)
Видим. Явления Облачность Т
(С)
Тd
(С)
f
(%)
Тe
(С)
Тes
(С)
Комфортность P
(гПа)
Po
(гПа)
Тmin
(С)
Tmax
(С)
R
(мм)
R24
(мм)
S
(см)
СВ 5 30 км 4/0
[]
-5.8 -10.3 70 -13 -13 очень
холодно
999.7 983.6
СВ 5 45 км н/о -5.7 -9.8 73 -13 -13 очень
холодно
998.7 982.7
СВ 4 40 км н/о -5.6 -9.9 72 -12 -12 очень
холодно
997.8 981.8
В 4 45 км 4/0
[]
-5.6 -9.3 75 -12 -12 очень
холодно
997.1 981.1
СВ 4 45 км 9/0
[]
-5.1 -9.0 74 -11 -11 очень
холодно
996.5 980.6
В 5 50 км 9/0
[]
-4.8 -8.9 73 -11 -11 очень
холодно
995.6 979.7
СВ 4 45 км 9/0
[]
-4.6 -7.9 78 -10 -10 очень
холодно
994.7 978.8
СВ 5 35 км 9/0
[]
-4.2 -8.3 73 -11 -11 очень
холодно
993.9 978.1
СВ 5 30 км 4/0
[]
-4.1 -8.4 72 -11 -11 очень
холодно
993.4 977.6 -7.2 -3.8
В 5 45 км 9/0
[]
-4.0 -7.9 74 -11 -11 очень
холодно
992.9 977.0
В 8 40 км 3/0
[]
-3.6 -8.1 71 -12 -12 очень
холодно
991.8 976.1
В 8 12 км 6/0
[]
-1.7 -8.3 61 -9 -9 очень
холодно
990.8 975.1
В 9 35 км в посл. час зёрна {ливн. осадки} н/о -1.3 -6.8 66 -9 -9 очень
холодно
989.8 974.2
В 8 12 км {ливн. осадки, снег} н/о -1.1 -8.4 58 -8 -8 очень
холодно
990.3 974.7
СВ 5 30 км 9/0
[]
-0.7 -7.1 62 -7 -7 холодно 990.4 974.8
СВ 3 35 км 9/0
[]
-0.8 -8.6 55 -5 -5 холодно 990.4 974.8
В 3 30 км 9/0
[]
-1.0 -7.6 61 -5 -5 холодно 990.6 975.0
В 4 30 км 9/0
[]
-0.7 -7.8 59 -6 -6 холодно 990.8 975.2
В 6 40 км 9/0
[]
-0.7 -7.3 61 -7 -7 холодно 990.7 975.1
В 5 30 км 8/0
[]
-0.8 -7.2 62 -6 -6 холодно 990.9 975.4
В 5 35 км 9/0
[]
-0.7 -7.1 62 -6 -6 холодно 991.0 975.4 -4.5 +0.1
В 4 35 км 8/0
[]
-0.6 -8.2 56 -5 -5 холодно 991.4 975.8
В 5 50 км 5/0
[]
-0.2 -7.8 57 -6 -6 холодно 991.5 976.0
В 6 26 км 9/0
[]
-0.1 -8.2 54 -6 -6 холодно 991.5 976.0
В 7 40 км 10/0
[]
+0.1 -7.8 55 -6 -6 холодно 991.5 975.9
В 6 45 км 4/0
[]
-0.2 -8.0 56 -6 -6 холодно 991.5 975.9
В 6 45 км н/о -0.4 -7.3 60 -7 -7 холодно 991.2 975.7
В 5 45 км 9/0
[]
-0.1 -8.7 52 -6 -6 холодно 991.4 975.8
В 4 35 км н/о +0.1 -8.5 52 -5 -5 холодно 991.7 976.2
В 5 50 км 9/0
[]
-0.5 -8.8 53 -6 -6 холодно 991.9 976.3
СВ 4 35 км 3/0
[]
+0.5 -9.5 47 -4 -4 прохладно 992.4 976.8
СВ 3 35 км 1/0
[]
+0.3 -9.4 48 -4 -4 прохладно 992.8 977.2
В 3 40 км 3/0
[]
-0.4 -6.1 65 -5 -5 холодно 993.3 977.7 -1.2 +1.1
СВ 4 35 км н/о -0.8 -5.2 72 -6 -6 холодно 993.8 978.2
СВ 3 40 км н/о -0.8 -7.2 62 -5 -5 холодно 994.2 978.5
СВ 3 30 км н/о -0.3 -8.9 52 -4 -4 прохладно 994.2 978.6
В 4 30 км н/о -1.1 -4.2 79 -7 -7 холодно 994.7 979.0
СВ 3 45 км 5/0
[]
-0.2 -9.6 49 -4 -4 прохладно 994.4 978.8
СВ 4 40 км 6/0
[]
-1.5 -5.5 74 -7 -7 холодно 994.7 979.0
СВ 5 40 км 9/0
[]
-1.6 -4.8 79 -8 -8 очень
холодно
994.7 979.0
СВ 4 50 км 1/0
[]
-1.3 -5.9 71 -7 -7 холодно 994.6 978.9
СВ 4 40 км 9/0
[]
-1.2 -8.3 58 -6 -6 холодно 994.5 978.8
СВ 2 30 км 9/0
[]
-1.0 -7.4 62 -4 -4 прохладно 994.9 979.2
СВ 2 45 км 9/0
[]
-0.6 -8.9 53 -4 -4 прохладно 994.8 979.1
В 4 35 км 10/0
[]
-1.3 -5.9 71 -7 -7 холодно 994.8 979.1 -2.1 +0.6
СВ 4 45 км 9/0
[]
-1.3 -7.0 65 -6 -6 холодно 995.0 979.3
СВ 2 30 км 9/0
[]
-1.1 -6.4 67 -5 -5 холодно 995.1 979.5
СВ 3 50 км 9/0
[]
-1.8 -5.2 78 -6 -6 холодно 995.3 979.6
СВ 4 40 км 3/0
[]
-1.9 -5.7 75 -8 -8 очень
холодно
995.3 979.6
СВ 4 45 км н/о -1.7 -5.3 76 -7 -7 холодно 995.5 979.8
В 3 50 км 3/0
[]
-1.5 -6.1 71 -6 -6 холодно 995.5 979.8
СВ 2 40 км 10/0
[]
-1.8 -6.0 73 -5 -5 холодно 995.7 980.0
СВ 2 40 км 10/0
[]
-1.4 -5.8 72 -5 -5 холодно 995.7 980.0
СВ 2 30 км 10/0
[]
-1.4 -4.7 78 -5 -5 холодно 995.3 979.6
СВ 2 20 км 9/0
[]
-1.7 -6.9 68 -5 -5 холодно 995.3 979.6
СВ 4 45 км 10/0
[]
-1.8 -7.0 68 -7 -7 холодно 995.6 979.8
В 3 35 км 10/0
[]
-1.4 -4.3 81 -6 -6 холодно 995.6 979.9 -2.7 -0.7
С 1 45 км 10/0
[]
-1.3 -8.1 60 -3 -3 прохладно 995.7 980.0
В 1 30 км 10/0
[]
-1.5 -5.3 75 -4 -4 прохладно 995.7 980.0
В 3 30 км 10/0
[]
-1.9 -4.8 81 -7 -7 холодно 995.8 980.1
В 4 35 км 10/0
[]
-1.7 -4.0 84 -8 -8 очень
холодно
995.8 980.1
В 4 50 км 8/0
[]
-1.7 -4.8 79 -7 -7 холодно 995.6 979.9
СВ 2 35 км 10/0
[]
-1.9 -4.6 82 -6 -6 холодно 995.7 980.0
СВ 3 45 км 9/0
[]
-2.1 -5.5 77 -7 -7 холодно 995.7 979.9
В 4 40 км 9/0
[]
-2.1 -5.5 77 -8 -8 очень
холодно
995.9 980.2
В 5 40 км 9/0
[]
-2.4 -5.8 77 -9 -9 очень
холодно
995.7 980.0
В 6 35 км 8/0
[]
-1.8 -5.4 76 -9 -9 очень
холодно
995.4 979.6
В 5 45 км 9/0
[]
-1.6 -6.6 69 -8 -8 очень
холодно
995.3 979.6
В 4 40 км 9/0
[]
-1.8 -6.4 71 -7 -7 холодно 995.6 979.9 -2.6 -0.8
В 4 45 км 10/0
[]
-1.7 -6.3 71 -7 -7 холодно 995.8 980.1
В 6 35 км 9/0
[]
-1.4 -6.2 70 -8 -8 очень
холодно
995.8 980.1
В 7 50 км 9/0
[]
-0.7 -7.8 59 -7 -7 холодно 995.9 980.2
В 3 40 км 9/0
[]
-1.2 -6.5 67 -5 -5 холодно 996.7 981.0
В 3 45 км 9/0
[]
-0.2 -8.0 56 -4 -4 прохладно 997.2 981.6
ЮВ 2 50 км 9/0
[]
-0.1 -9.5 49 -3 -3 прохладно 998.0 982.4
В 2 45 км 4/0
[]
+0.3 -10.9 43 -3 -3 прохладно 998.6 983.0
В 2 50 км 10/0
[]
-0.4 -8.5 54 -4 -4 прохладно 999.6 983.9
В 3 50 км 6/0
[]
-1.1 -7.0 64 -5 -5 холодно 1000.5 984.7
В 3 50 км 6/0
[]
+0.2 -10.1 46 -3 -3 прохладно 1001.3 985.6
ЮВ 2 35 км 9/0
[]
-0.1 -10.1 47 -3 -3 прохладно 1002.6 986.9
З 2 40 км 10/0
[]
+0.5 -6.9 58 -3 -3 прохладно 1004.2 988.4 -2.3 +1.2
ЮЗ 7 30 км 10/0
[]
+1.5 -8.0 49 -4 -4 прохладно 1005.1 989.4
ЮЗ 7 40 км 5/0
[]
+1.3 -6.9 54 -5 -5 холодно 1006.6 990.8
Ю 7 40 км 1/0
[]
+1.4 -8.1 49 -5 -5 холодно 1007.1 991.4
В 5 45 км 5/0
[]
-0.7 -7.5 60 -7 -7 холодно 1007.7 991.9
В 5 45 км 9/0
[]
-0.2 -7.8 57 -6 -6 холодно 1008.1 992.3
В 5 45 км 9/0
[]
+0.3 -8.9 50 -5 -5 холодно 1008.5 992.7
В 6 40 км 9/0
[]
-0.3 -9.7 49 -6 -6 холодно 1008.9 993.1
В 5 30 км 9/0
[]
-0.9 -10.5 48 -6 -6 холодно 1009.2 993.3
В 6 50 км 9/0
[]
-0.6 -11.1 45 -7 -7 холодно 1009.3 993.5
СВ 5 50 км 4/0
[]
-0.6 -10.8 46 -6 -6 холодно 1009.7 993.8
СВ 5 35 км 1/0
[]
-0.7 -9.0 53 -6 -6 холодно 1010.0 994.1
В 2 45 км 9/0
[]
+2.1 -13.4 31 +1 +1 по сезону 1010.3 994.6 -1.8 +2.4
ЮЗ 12 19 км 10/0
[]
+0.2 -4.9 69 -8 -8 очень
холодно
1010.5 994.7
ЮЗ 6 13 км 10/10 500 м
[]
-0.2 -2.6 84 -7 -7 холодно 1011.3 995.4
З 4 16 км {ливн. осадки} 10/0
[]
-0.6 -3.1 83 -6 -6 холодно 1008.3 992.4
СЗ 3 15 км 9/9 300 м
[]
-0.8 -4.1 78 -6 -6 холодно 1007.0 991.1
С 3 22 км 9/9 300 м
[]
-0.9 -5.3 72 -5 -5 холодно 1005.8 989.9
СВ 1 30 км 10/10 800 м
[]
-1.3 -4.9 76 -3 -3 прохладно 1004.8 988.9
СЗ 1 24 км 10/10 450 м
[]
-1.1 -5.3 73 -3 -3 прохладно 1003.4 987.6
штиль 0 29 км 9/9 600 м
[]
-1.3 -7.0 65 -2 -2 по сезону 1002.3 986.5
В 1 30 км 9/9 630 м
[]
-1.4 -6.2 70 -3 -3 прохладно 1001.1 985.3 -1.6 +2.6
В 2 29 км 9/9 500 м
[]
-1.6 -5.2 76 -5 -5 холодно 999.7 983.9
В 4 35 км 9/0
[]
-3.1 -7.3 73 -9 -9 очень
холодно
998.2 982.4
В 5 45 км 9/9 360 м
[]
-3.5 -8.2 70 -10 -10 очень
холодно
996.2 980.4
В 3 45 км 10/0
[]
-3.2 -8.0 69 -8 -8 очень
холодно
993.9 978.2
В 3 45 км 10/0 2000 м
[]
-3.5 -8.0 71 -8 -8 очень
холодно
990.8 975.0
СВ 3 40 км 9/0
[]
-2.7 -7.9 67 -7 -7 холодно 987.5 971.8
40 км 10/0
[]
-1.8 -7.7 64 984.5 969.0
С 7 22 км 10/0
[]
-1.9 -5.7 75 -9 -9 очень
холодно
982.3 966.8
СВ 3 30 км 10/0
[]
-1.9 -6.3 72 -6 -6 холодно 980.2 964.7
В 1 35 км 10/0
[]
-2.3 -6.3 74 -4 -4 прохладно 978.3 962.9
С 3 25 км 10/0
[]
-1.5 -5.3 75 -6 -6 холодно 976.5 961.0
С 4 27 км 10/0 2000 м
[]
-1.3 -4.9 76 -7 -7 холодно 975.5 960.2 -4.0 -1.1
С 5 14 км 9/9 240 м
[]
-1.2 -3.4 85 -8 -8 очень
холодно
975.2 959.9
С 6 15 км 10/10 1200 м
[]
-1.2 -3.7 83 -8 -8 очень
холодно
974.9 959.6
С 4 15 км 10/10 330 м
[]
-1.5 -3.7 85 -7 -7 холодно 975.4 960.0
С 5 13 км в посл. час осадки {ливн. осадки} 10/10 700 м
[]
-1.6 -3.8 85 -8 -8 очень
холодно
974.9 959.5
С 4 14 км {ливн. осадки, осадки} 10/10 1500 м
[]
-1.9 -3.9 86 -8 -8 очень
холодно
974.7 959.3
СВ 5 12 км 10/10 240 м
[]
-2.2 -3.8 89 -9 -9 очень
холодно
974.2 958.8
С 6 8000 м слаб. снег {осадки} 10/10 420 м
[]
-2.1 -3.7 89 -9 -9 очень
холодно
973.2 957.8
С 5 6000 м слаб. снег {осадки} 10/10 1170 м
[]
-2.2 -3.1 94 -9 -9 очень
холодно
971.8 956.4
С 5 16 км в посл. час снег 9/9 210 м
[]
-2.1 -3.5 90 -9 -9 очень
холодно
970.6 955.2
СВ 5 18 км {снег, осадки} 9/0
[]
-2.0 -4.0 86 -9 -9 очень
холодно
969.5 954.1
С 6 20 км {снег, осадки} н/о -2.4 -4.4 86 -10 -10 очень
холодно
967.9 952.6
СВ 4 20 км 10/0
[]
-1.7 -3.5 87 -8 -8 очень
холодно
966.7 951.4 -2.7 -1.0
С 3 26 км 10/0
[]
-0.9 -3.6 82 -5 -5 холодно 965.5 950.3
С 6 10 км 10/0
[]
-0.7 -2.2 90 -8 -8 очень
холодно
965.6 950.4
СЗ 6 3100 м осадки 10/10 180 м
[]
-1.4 -2.4 93 -8 -8 очень
холодно
967.6 952.3
СЗ 7 400 м снег {осадки} 10/10 90 м
[]
-1.8 -2.3 96 -9 -9 очень
холодно
969.9 954.6
СЗ 8 100 м сильн. снег {осадки} 10/10 60 м
[]
-2.7 -3.2 96 -11 -11 очень
холодно
973.2 957.8
СЗ 6 500 м слаб. ледяной дождь 10/10 60 м
[]
-3.1 -3.5 97 -11 -11 очень
холодно
975.5 960.0
СЗ 5 1300 м слаб. снег 10/10 60 м
[]
-3.2 -3.8 96 -10 -10 очень
холодно
977.9 962.4
СЗ 6 1100 м слаб. снег 10/10 90 м
[]
-3.2 -3.8 96 -11 -11 очень
холодно
980.3 964.7
СЗ 8 1200 м слаб. снег 10/10 120 м
[]
-3.6 -4.0 97 -12 -12 очень
холодно
983.0 967.4
СЗ 11 1800 м слаб. снег 10/10 180 м
[]
-3.9 -4.5 96 -14 -14 очень
холодно
986.2 970.5
З 11 2000 м снежные зёрна 10/10 270 м
[]
-4.7 -5.8 92 -15 -15 очень
холодно
989.5 973.7
З 9 6000 м в посл. час переохл. осадки (гололёд) 10/10 480 м
[]
-4.7 -7.5 81 -14 -14 очень
холодно
992.6 976.7 -4.9 -0.6
З 8 3400 м слаб. переохл. морось (гололёд) 10/10 450 м
[]
-4.6 -6.9 84 -13 -13 очень
холодно
995.1 979.2
З 9 5000 м слаб. переохл. морось (гололёд) 10/10 450 м
[]
-4.1 -7.3 78 -13 -13 очень
холодно
997.3 981.4
ЮЗ 8 6000 м ливневой дождь 10/10 720 м
[]
-3.6 -7.9 72 -12 -12 очень
холодно
999.3 983.4
ЮЗ 9 11 км слаб. переохл. морось (гололёд) 10/10 720 м
[]
-3.3 -7.9 70 -12 -12 очень
холодно
1000.6 984.7
ЮЗ 8 11 км осадки {ливн. осадки} 10/10 720 м
[]
-3.2 -8.0 69 -11 -11 очень
холодно
1001.6 985.7
Ю 7 11 км ливневой дождь {снег} 10/10 720 м
[]
-3.0 -7.0 74 -11 -11 очень
холодно
1002.1 986.2
Ю 9-13
{12}
3800 м слаб. ливневой снег 9/9 660 м
[]
-2.9 -6.9 74 -12 -12 очень
холодно
1002.5 986.6
Ю 10 300 м снег {ливн. осадки} 10/10 120 м
[]
-3.8 -5.1 91 -13 -13 очень
холодно
1003.1 987.1
Ю 8
{19}
1300 м снежные зёрна {ливн. осадки} 9/9 120 м
[]
-3.5 -5.6 85 -12 -12 очень
холодно
1003.5 987.6
Ю 15 н/о слаб. снег 9/9 570 м
[]
-4.3 -6.2 87 -15 -15 очень
холодно
1004.0 988.0
Ю 14 н/о слаб. снег 9/9 500 м
[]
-3.0 -6.6 76 -13 -13 очень
холодно
1004.1 988.2
Ю 14
{21}
н/о слаб. снег 10/10 750 м
[]
-2.8 -6.0 79 -13 -13 очень
холодно
1005.4 989.5 -4.8 -2.5
ЮЗ 14 2100 м слаб. снег 9/9 840 м
[]
-2.8 -7.2 72 -13 -13 очень
холодно
1006.2 990.3
ЮЗ 11 11 км ливневой дождь {снег} 3/3 930 м
[]
-3.1 -9.4 62 -12 -12 очень
холодно
1007.1 991.1
ЮЗ 9
{20}
27 км {ливн. осадки, снег} 9/9 930 м
[]
-2.8 -9.8 59 -11 -11 очень
холодно
1008.1 992.1
Ю 6 21 км {ливн. осадки, снег} 9/9 800 м
[]
-3.1 -8.7 65 -10 -10 очень
холодно
1008.3 992.3
Ю 5 19 км слаб. ливневой снег 10/10 800 м
[]
-3.2 -8.6 66 -10 -10 очень
холодно
1008.6 992.6
Ю 5
{20}
8000 м слаб. ливневой снег 10/10 1000 м
[]
-3.8 -6.1 84 -10 -10 очень
холодно
1008.8 992.8
В 7 2600 м ливневой дождь 9/9 450 м
[]
-3.4 -6.0 82 -11 -11 очень
холодно
1008.6 992.6
В 4 11 км ливневой дождь 10/10 720 м
[]
-3.4 -6.0 82 -10 -10 очень
холодно
1009.0 993.0
Ю 8 12 км в посл. час снег {ливн. осадки} 6/6 570 м
[]
-2.9 -7.5 71 -11 -11 очень
холодно
1008.8 992.8
ЮВ 7 1800 м слаб. снег 10/10 300 м
[]
-3.8 -4.9 92 -12 -12 очень
холодно
1009.0 992.9
Ю 7 4800 м слаб. снег 10/10 870 м
[]
-3.2 -5.7 83 -11 -11 очень
холодно
1009.1 993.1
Ю 5 800 м слаб. ливневой снег 10/10 300 м
[]
-3.5 -6.1 82 -10 -10 очень
холодно
1009.8 993.8 -4.2 -2.4
ЮВ 5 2900 м слаб. снег 10/10 240 м
[]
-3.9 -4.7 94 -11 -11 очень
холодно
1010.1 994.0
ЮВ 6 3000 м слаб. снег 10/10 360 м
[]
-4.0 -4.9 93 -12 -12 очень
холодно
1010.3 994.2
Местоположение метеостанции Mittarfik Upernavik (Гренландия): широта 72.78 долгота -56.13 высота над уровнем моря 129 м.
В архиве по умолчанию представлена погода в Mittarfik Upernavik за последнюю неделю. Архивные данные за месяц целиком и за предыдущие месяцы, начиная с января 2011 года, Вы можете получить, выбрав интересующий диапазон дат из раскрывающегося списка и нажав кнопку "Найти!".
*Определитесь, кто Вы:
Внимание! Время в таблицах - всемирное. Для получения местного времени необходимо прибавить поправку, которая равна -3 ч.
Смотрите также архив погоды в соседних городах и на ближайших метеорологических станциях:
Партнеры нашего сайта:      
Пояснения к столбцам:
  • Ветер - указаны скорость ветра в м/с - средняя за 10 мин, порывы в срок и между сроками (в фигурных скобках) и направление, откуда дует ветер: С - северный,
  • СВ - северо-восточный, В - восточный, ЮВ - юго-восточный, Ю - южный, ЮЗ - юго-западный, З - западный, СЗ - северо-западный.
  • Видимость - горизонтальная дальность видимости в метрах или километрах. При видимости от 1 до 10 км при отсутствии осадков обычно наблюдается дымка, при ухудшении видимости до 1 км и менее - туман. В сухую погоду видимость может ухудшаться дымом, пылью или мглою.
  • Явления - указаны атмосферные явления, наблюдавшиеся в срок или в последний час перед сроком; фигурными скобками обозначены явления, наблюдавшиеся между сроками (за 1-3 часа до срока); квадратными скобками обозначены град или гололедные отложения с указанием их диаметра в мм.
  • Облачность - указаны через наклонную черту общая и нижняя облачность в баллах и высота нижней границы облаков в метрах; квадратными скобками обозначены формы облаков: Ci - перистые, Cs - перисто-слоистые, Cc - перисто-кучевые, Ac - высококучевые, As - высокослоистые, Sc - слоисто-кучевые, Ns - слоисто-дождевые, Cu - кучевые, Cb - кучево-дождевые. Подробнее классификацию облаков см. в Атласе облаков (PDF).
  • T - Температура воздуха - температура, измеренная на высоте 2 м над землей.
  • Td - Температура точки росы - температура, при понижении до которой содержащийся в воздухе водяной пар достигнет насыщения.
  • f - Относительная влажность воздуха - влажноcть воздуха, измеренная на высоте 2 м над землей.
  • Te - Эффективная температура - температура, которую ощущает одетый по сезону человек в тени. Характеристика душности погоды. При расчете учитывается влияние влажности воздуха и скорости ветра на теплоощущения человека.
  • Tes - Эффективная температура на солнце - температура, которую ощущает человек, с поправкой на солнечный нагрев. Характеристика знойности погоды. Зависит от высоты солнца над горизонтом, облачности и скорости ветра. Ночью, в пасмурную погоду, а также при ветре 12 м/с и более поправка равна нулю.
  • P - Атмосферное давление - приведенное к уровню моря атмосферное давление.
  • Po - Атмосферное давление - измеренное на уровне метеостанции атмосферное давление.
  • Tmin - Минимальная температура - минимум температуры воздуха на высоте 2 м над землей.
  • Tmax - Максимальная температура - максимум температуры воздуха на высоте 2 м над землей.
  • R - Количество осадков - Количество выпавших осадков за период времени, мм. При наведении курсора мыши на число - период времени, за который выпало указанное количество осадков.
  • R24 - Количество осадков - Количество выпавших осадков за 24 часа, мм.
  • S - Снежный покров - Высота снежного покрова, см. При наведении курсора мыши на число - состояние снежного покрова и степень покрытия местности в баллах.